Location: Stara Lesna
(49.1528°N, 20.2911°E)
Time: 15:47:35
(UTC+02:00)

Cosmos 1833 - Pass Details

Date: 21 September 2019
Orbit: 836 x 863 km, 70.9° (Epoch: 19 October)

Event Time Altitude Azimuth Distance (km) Brightness Sun altitude
Rises 03:55:10 0° 329° (NNW) 3,400 7.4 -23.7°
Reaches altitude 10° 03:57:38 10° 327° (NNW) 2,460 6.6 -23.4°
Maximum altitude 04:03:13 66° 246° (WSW) 910 4.0 -22.6°
Drops below altitude 10° 04:08:46 10° 165° (SSE) 2,444 6.5 -21.8°
Sets 04:11:12 0° 163° (SSE) 3,376 7.2 -21.5°
